TimeCDT,TemperatureF,Dew PointF,Humidity,Sea Level PressureIn,VisibilityMPH,Wind Direction,Wind SpeedMPH,Gust SpeedMPH,PrecipitationIn,Events,Conditions,WindDirDegrees,DateUTC
12:53 AM,64.9,42.1,43,30.00,10.0,ENE,15.0,-,N/A,,Clear,60,2013-03-20 05:53:00
1:53 AM,64.0,41.0,43,30.02,10.0,NE,11.5,-,N/A,,Overcast,40,2013-03-20 06:53:00
2:53 AM,64.0,39.9,41,30.03,10.0,NE,16.1,-,N/A,,Mostly Cloudy,40,2013-03-20 07:53:00
3:53 AM,62.1,37.9,41,30.05,10.0,NNE,23.0,34.5,0.00,Rain,Light Rain,30,2013-03-20 08:53:00
4:53 AM,62.1,37.0,39,30.12,10.0,NNE,15.0,20.7,0.00,,Overcast,20,2013-03-20 09:53:00
5:53 AM,60.1,39.0,46,30.14,10.0,NNE,19.6,26.5,0.00,,Overcast,20,2013-03-20 10:53:00
6:53 AM,57.0,42.1,57,30.14,10.0,ENE,9.2,-,0.00,Rain,Light Rain,70,2013-03-20 11:53:00
7:18 AM,55.4,44.6,67,30.16,6.0,East,4.6,-,0.01,Rain-Thunderstorm,Rain,100,2013-03-20 12:18:00
7:28 AM,53.6,46.4,77,30.15,7.0,East,5.8,-,0.02,Rain-Thunderstorm,Rain,100,2013-03-20 12:28:00
7:49 AM,53.6,46.4,77,30.16,9.0,ENE,8.1,-,0.05,Rain,Light Rain,70,2013-03-20 12:49:00
7:53 AM,53.1,48.0,83,30.19,6.0,ENE,8.1,-,0.05,Rain,Rain,60,2013-03-20 12:53:00
8:53 AM,53.1,48.9,86,30.19,10.0,Calm,Calm,-,0.08,,Mostly Cloudy,0,2013-03-20 13:53:00
9:53 AM,53.1,48.0,83,30.22,10.0,NNE,10.4,-,N/A,,Clear,30,2013-03-20 14:53:00
10:53 AM,57.9,48.0,70,30.21,10.0,NE,18.4,-,N/A,,Clear,40,2013-03-20 15:53:00
11:53 AM,62.1,48.0,60,30.20,10.0,NE,16.1,21.9,N/A,,Clear,50,2013-03-20 16:53:00
12:53 PM,66.9,48.0,51,30.19,10.0,NNE,17.3,21.9,N/A,,Clear,30,2013-03-20 17:53:00
1:53 PM,71.1,44.1,38,30.14,10.0,NNE,17.3,-,N/A,,Clear,20,2013-03-20 18:53:00
2:53 PM,73.9,39.0,28,30.12,10.0,NNE,18.4,25.3,N/A,,Clear,30,2013-03-20 19:53:00
3:53 PM,75.0,33.1,22,30.09,10.0,NNE,19.6,26.5,N/A,,Clear,20,2013-03-20 20:53:00
4:53 PM,73.9,30.9,21,30.07,10.0,NE,15.0,21.9,N/A,,Clear,50,2013-03-20 21:53:00
5:53 PM,73.0,28.9,20,30.08,10.0,NE,13.8,-,N/A,,Clear,50,2013-03-20 22:53:00
6:53 PM,70.0,30.9,24,30.08,10.0,North,6.9,-,N/A,,Clear,360,2013-03-20 23:53:00
7:53 PM,64.0,33.1,31,30.09,10.0,North,6.9,-,N/A,,Clear,10,2013-03-21 00:53:00
8:53 PM,60.1,36.0,41,30.09,10.0,NNE,5.8,-,N/A,,Clear,20,2013-03-21 01:53:00
9:53 PM,57.9,37.9,47,30.08,10.0,NE,5.8,-,N/A,,Clear,40,2013-03-21 02:53:00
10:53 PM,53.1,39.9,61,30.10,10.0,Calm,Calm,-,N/A,,Clear,0,2013-03-21 03:53:00
11:53 PM,52.0,39.9,63,30.09,10.0,Calm,Calm,-,N/A,,Clear,0,2013-03-21 04:53:00